Location: Chuathbaluk
(61.5726°N, 159.2454°W)
Time: 04:32:03
(UTC+00:00)

Transit 4A - Pass Details

Date: 28 November 2020
Orbit: 864 x 980 km, 66.8° (Epoch: 26 January)

Event Time Altitude Azimuth Distance (km) Brightness Sun altitude
Rises 01:01:04 0° 298° (WNW) 3,693 11.1 1.4°
Reaches altitude 10° 01:03:40 10° 301° (WNW) 2,744 10.5 1.2°
Maximum altitude 01:10:07 72° 26° (NNE) 1,030 8.1 0.7°
Drops below altitude 10° 01:16:27 10° 111° (ESE) 2,702 10.2 0.3°
Sets 01:19:00 0° 113° (ESE) 3,633 10.8 0.1°
